Wind_Speed
10 12 13 13 12 11 12 13 14 14 15 16 15 17 16 11 6 1 10 9 13 22 23 17 13 9 12 12 16 14 12 14 18 18 17 16 17 7 5 9 12 10 7 13 10
11 12 13 13 13 14 14 15 14 15 16 15 14 15 15 9 6 15 9 13 16 18 18 16 13 14 8 13 12 14 14 20 17 18 12 17 19 13 13 16 13 7 7 11 8
11 12 12 13 14 14 14 14 15 15 16 14 14 13 10 7 6 7 18 14 12 16 15 17 12 13 14 13 15 17 18 18 19 19 19 20 18 13 16 15 17 20 11 13 12
11 12 12 13 13 15 14 15 14 15 14 14 14 12 7 2 2 11 17 16 12 16 13 14 11 12 12 15 15 19 21 20 21 20 21 21 21 20 13 17 18 19 18 12 11
11 11 11 11 12 14 13 15 15 15 12 13 11 8 3 6 7 10 15 13 12 13 11 11 12 12 11 15 18 18 18 19 17 19 21 20 22 21 21 17 16 19 20 18 11
10 11 10 11 13 15 13 15 16 13 12 13 9 10 6 5 6 12 12 12 14 14 13 10 8 13 11 15 15 17 22 22 22 21 19 19 21 21 24 16 19 19 20 21 18
10 11 10 11 13 13 14 15 13 7 10 9 5 10 18 7 7 11 12 9 11 11 10 10 13 10 15 16 13 15 19 19 21 20 22 20 25 29 21 19 22 21 19 18 22
9 11 11 11 12 13 14 11 5 6 7 8 7 6 5 4 5 11 13 10 12 10 10 11 11 12 13 13 18 20 20 19 23 22 24 23 27 26 21 22 23 23 19 19 21
10 11 11 11 11 12 8 6 6 7 6 7 6 5 6 3 6 8 10 12 13 9 9 8 6 10 13 13 14 16 18 23 26 21 22 21 26 23 22 19 16 18 18 18 18
11 11 12 10 11 8 3 3 3 5 2 4 6 3 7 6 5 6 10 9 11 12 12 10 8 10 12 12 13 18 19 21 21 21 24 23 22 18 22 21 15 16 15 18 16
11 12 12 7 12 6 2 3 4 3 12 11 7 10 6 7 4 2 11 13 11 13 10 10 11 12 16 18 18 19 21 22 22 23 23 23 23 24 22 22 20 16 14 16 19
11 11 12 5 13 13 5 2 5 4 5 5 5 7 2 4 5 8 14 10 13 12 12 11 12 15 12 14 15 18 20 21 21 22 21 22 24 24 23 23 21 21 20 19 21
10 11 9 2 6 10 13 7 4 2 3 3 2 4 2 6 5 8 11 11 11 12 13 12 15 18 18 14 16 18 18 19 22 22 25 23 23 20 25 25 22 21 21 21 20
11 11 8 2 3 1 7 7 4 2 2 4 3 4 3 10 3 7 7 8 11 13 15 11 15 19 19 17 17 17 18 18 20 18 16 20 16 23 24 22 21 24 26 24 25
11 10 5 3 5 5 4 5 2 3 1 2 4 3 8 5 7 9 10 6 10 14 12 15 18 17 17 19 18 14 21 21 23 19 21 22 13 17 20 23 22 20 20 19 21
11 5 3 2 4 3 4 4 2 3 2 3 2 3 8 3 7 6 9 8 8 13 15 14 18 13 18 15 20 14 13 21 22 16 15 23 17 17 11 16 19 19 20 22 20
6 7 6 4 2 5 4 5 1 3 2 4 3 5 8 6 6 9 10 9 6 8 14 20 6 5 12 15 14 17 5 6 6 7 10 12 8 4 13 17 18 17 18 17 17
2 2 5 6 5 6 7 1 1 3 3 2 3 8 3 4 5 8 8 8 10 10 11 10 9 4 17 17 21 18 14 4 7 6 15 17 8 5 12 20 22 22 20 19 17
3 2 1 5 6 8 4 3 4 3 3 3 9 6 1 5 4 5 8 4 4 6 5 10 9 26 20 16 13 14 12 16 12 17 14 9 10 16 15 20 20 22 21 21 17
6 5 4 5 7 8 3 1 4 3 1 2 2 1 5 8 7 8 7 1 2 3 4 9 20 15 17 22 17 9 12 6 3 6 6 10 9 4 16 20 19 18 21 23 21
6 3 4 4 8 4 2 2 4 5 1 1 2 4 4 8 6 9 7 4 3 4 7 13 6 13 18 16 18 15 11 5 4 6 4 6 5 1 12 13 19 21 19 20 19
5 2 2 4 1 1 1 2 4 8 4 1 1 4 4 6 8 9 10 8 4 7 11 4 3 11 22 22 20 7 8 9 4 8 8 10 15 15 20 17 16 18 19 19 19
2 2 3 3 2 2 4 4 2 4 4 4 3 2 3 5 5 6 9 7 9 6 7 7 4 13 14 13 9 5 10 4 6 9 12 11 12 17 23 18 18 17 19 16 14
3 1 4 5 5 6 6 5 5 2 4 3 4 4 6 8 9 7 13 13 10 7 6 9 13 13 13 15 16 20 18 15 10 7 13 15 23 26 21 18 21 17 16 14 13
3 2 4 2 3 6 3 4 6 4 6 3 4 8 6 6 10 12 13 14 17 16 10 7 7 10 15 18 20 22 20 20 17 15 15 21 22 23 17 16 15 17 16 15 12
3 2 2 5 2 8 6 3 7 6 2 5 9 8 8 9 10 13 16 14 12 11 9 3 7 12 21 20 21 22 23 23 23 24 22 22 24 12 15 13 15 13 14 13 15
3 1 2 4 3 4 6 5 5 5 2 6 9 8 8 11 13 13 13 14 15 16 15 14 11 10 17 16 19 12 16 15 17 17 19 15 10 14 10 15 12 12 12 13 13
Wind_Direction
47 42 32 26 20 11 3 0 360 356 353 351 353 347 347 349 334 352 29 351 339 342 343 318 272 250 243 253 261 260 253 252 257 258 274 290 278 291 330 299 284 283 223 93 92
42 44 34 26 13 4 0 357 358 355 348 346 345 339 342 344 352 54 355 339 336 337 335 337 330 331 293 266 233 239 246 251 258 269 270 282 293 300 298 288 276 249 270 115 106
37 40 33 24 12 360 355 353 354 347 341 341 341 338 337 355 264 59 345 333 343 343 311 307 300 278 277 264 255 237 246 263 272 287 301 302 300 285 288 270 273 285 236 172 162
34 38 27 19 4 358 350 347 345 342 339 346 342 343 335 321 68 4 354 355 349 340 311 336 331 299 286 281 271 248 259 263 271 280 285 283 292 284 258 277 280 290 301 298 165
23 31 21 9 358 350 340 342 342 338 339 346 348 348 335 117 45 0 2 354 353 349 351 349 324 350 308 323 320 287 279 286 287 288 286 288 277 278 270 267 278 288 291 293 291
10 6 6 357 354 346 339 337 339 341 348 351 6 350 259 102 354 353 357 359 4 359 346 3 345 333 290 283 278 293 301 293 293 289 288 285 282 282 263 267 263 269 278 282 280
357 349 353 351 351 346 338 335 337 347 351 3 23 353 52 60 350 3 0 344 350 347 334 338 331 316 324 303 284 298 291 286 272 268 267 265 261 253 265 263 269 274 271 255 255
354 351 353 355 355 352 341 340 11 9 14 31 35 334 73 21 8 9 2 357 350 338 327 314 300 299 274 275 283 278 273 275 273 266 254 239 259 258 254 245 242 251 254 254 261
357 356 357 0 9 3 7 45 49 43 59 22 350 304 80 292 17 2 9 347 330 325 301 295 284 270 281 272 277 262 265 269 276 269 268 255 257 259 259 241 241 237 254 261 250
356 355 358 12 23 26 50 97 45 1 349 275 270 175 58 13 5 308 360 332 307 302 298 231 235 289 267 256 275 307 308 305 303 310 317 305 290 273 270 271 259 269 250 265 261
353 352 357 26 42 49 4 290 211 169 49 47 51 78 42 5 245 3 348 317 352 318 345 328 294 286 330 334 324 317 305 292 289 294 293 289 285 287 293 296 294 279 266 266 278
348 352 355 25 58 50 10 232 33 353 102 80 130 109 53 315 329 32 1 357 332 332 325 316 311 312 309 306 303 292 285 283 287 285 276 273 274 277 278 278 279 279 278 274 276
344 350 359 78 62 72 60 51 3 322 238 89 36 51 5 330 354 345 359 345 340 331 327 310 299 299 288 297 289 286 290 294 293 296 293 292 283 276 274 278 281 278 278 276 265
342 346 3 145 8 92 54 15 16 347 136 106 174 101 343 318 214 335 10 359 329 323 322 304 315 313 310 294 286 296 303 294 293 293 287 297 297 289 289 282 264 241 238 248 249
337 339 44 60 333 58 21 355 346 268 155 157 99 358 322 1 311 94 3 329 316 321 300 295 297 292 283 290 299 304 324 319 295 286 286 277 276 280 278 272 264 256 259 263 237
339 10 10 55 79 33 332 330 279 211 103 163 331 352 327 15 343 334 341 318 339 343 309 313 315 341 306 327 307 298 344 329 291 277 271 268 261 266 301 2 15 15 21 18 6
3 56 31 21 15 344 312 233 78 58 190 137 359 336 317 23 328 359 344 343 11 338 334 321 330 51 23 326 305 304 240 294 270 269 276 329 323 29 357 1 359 1 5 7 2
53 43 35 46 7 331 275 81 112 155 236 71 288 297 260 2 9 330 327 339 45 4 327 340 321 12 349 306 305 299 300 305 308 330 304 307 270 82 10 351 356 359 358 354 355
224 272 156 356 348 317 266 84 154 194 41 337 286 278 246 143 223 327 327 23 32 68 13 311 301 321 317 315 334 307 308 324 294 287 276 273 269 50 9 350 355 359 348 350 356
294 210 79 341 326 296 68 158 130 58 105 230 296 37 318 338 341 329 338 335 298 28 336 303 303 311 314 328 308 318 313 326 314 293 297 306 357 7 12 350 13 350 2 347 350
282 219 77 356 322 44 136 175 127 123 353 299 353 290 298 317 299 307 306 4 130 301 296 319 310 302 317 319 312 314 328 341 281 260 296 324 289 128 25 3 1 354 357 339 351
271 67 61 352 88 298 229 134 333 149 154 181 272 270 286 326 305 311 306 329 99 294 313 72 231 298 309 305 301 352 61 20 343 344 306 282 278 304 350 344 354 357 354 345 350
247 118 128 279 124 202 153 148 254 171 208 183 238 226 279 295 309 298 309 317 297 331 310 345 297 311 304 319 56 5 318 209 239 276 278 290 291 319 315 345 352 6 343 357 348
69 23 356 352 291 205 189 203 189 244 289 248 270 295 276 267 281 280 296 306 321 305 281 248 269 274 285 292 303 294 289 284 261 268 283 279 296 296 312 339 342 357 356 349 352
43 247 169 138 288 239 195 231 214 185 211 243 267 237 263 292 307 294 298 309 306 297 295 283 261 273 277 282 284 285 285 283 271 252 244 275 281 285 308 340 335 358 350 336 340
133 148 277 301 137 221 141 270 237 231 232 247 226 280 305 300 287 294 297 302 306 312 281 256 270 286 286 286 283 284 282 278 274 272 270 263 272 310 330 340 358 352 356 8 8
339 39 310 306 241 232 229 230 246 250 243 260 291 298 294 301 321 314 298 286 274 279 280 282 275 284 281 298 305 293 277 279 281 290 269 264 323 305 345 355 352 349 334 359 351
Height
835 832 832 830 829 828 826 824 820 819 817 815 811 809 806 804 802 804 807 812 809 805 799 793 785 786 785 783 779 773 788 786 778 773 764 743 746 737 735 741 738 733 737 743 749
833 829 829 829 829 827 824 823 821 819 818 816 813 811 808 805 804 808 814 812 810 807 802 797 791 787 783 778 776 779 783 777 762 755 755 750 747 744 747 747 743 739 734 740 747
834 830 830 829 828 828 826 824 821 821 820 817 814 810 808 806 807 812 815 812 810 805 803 797 791 788 785 776 773 770 776 766 759 751 748 752 751 746 752 757 748 745 735 737 743
834 830 831 829 829 827 825 824 822 822 820 815 812 809 807 807 808 815 814 810 808 804 801 795 791 788 782 778 764 772 762 760 758 753 752 754 749 751 752 753 744 739 736 735 740
834 830 831 830 829 827 826 823 822 821 819 816 813 810 808 806 817 817 813 810 808 805 799 799 795 791 790 781 773 768 763 757 754 754 753 751 754 753 748 745 745 742 740 739 737
835 833 831 830 827 825 824 823 821 818 815 814 812 810 809 806 817 816 813 812 810 808 803 800 802 800 798 790 787 776 773 769 764 763 759 763 760 755 741 745 747 747 745 742 740
836 835 832 830 827 824 823 822 820 819 817 816 814 813 812 821 819 817 814 813 812 811 809 807 806 805 797 795 782 779 782 772 765 763 761 761 765 755 747 742 747 745 743 741 741
836 835 832 830 827 824 822 821 820 820 819 817 816 816 819 821 819 817 816 813 813 811 810 808 807 806 802 794 790 789 782 779 757 754 749 757 760 740 736 736 740 740 738 738 736
836 836 834 830 828 824 823 822 822 821 820 819 818 817 820 821 819 819 819 817 813 810 807 807 807 804 799 797 791 779 780 768 755 743 742 742 745 729 721 724 729 730 732 729 728
838 838 835 831 829 826 824 824 823 822 821 822 820 819 821 822 822 821 820 817 813 807 800 803 798 797 790 787 791 780 774 766 764 752 747 747 741 728 723 721 724 728 727 725 721
841 838 836 833 830 828 827 827 827 825 820 820 820 821 823 824 822 819 820 815 813 807 805 801 806 802 792 789 786 786 785 780 771 762 764 757 752 741 733 730 731 725 725 726 722
840 837 836 835 831 828 826 825 830 832 826 824 823 824 826 824 819 816 821 819 817 815 810 807 807 795 790 791 793 792 789 782 771 762 762 760 755 744 739 735 733 730 728 726 724
840 837 835 835 833 831 831 832 832 831 821 826 825 823 824 823 824 820 822 822 819 817 814 814 807 799 795 795 796 791 789 784 780 769 760 759 754 748 740 735 731 728 726 724 723
839 838 836 834 836 833 833 833 832 832 821 826 821 822 821 819 821 818 821 826 822 821 815 812 804 801 801 798 793 796 785 783 781 781 779 762 768 754 739 729 721 719 721 718 719
839 837 835 836 835 835 837 834 834 834 824 828 820 825 820 821 824 820 820 821 824 822 821 819 810 804 801 799 791 797 790 791 779 776 774 768 767 751 735 732 720 713 710 706 707
839 837 837 836 837 838 836 835 836 828 833 823 820 822 822 819 822 821 821 820 821 825 817 811 804 805 802 798 792 789 801 801 789 774 780 763 762 751 744 744 728 720 718 719 719
840 839 837 837 836 838 836 834 835 830 828 822 821 822 823 823 824 826 826 824 834 840 832 820 803 809 812 811 794 791 814 810 786 777 775 781 784 766 771 751 742 732 727 726 727
841 839 840 840 839 837 836 830 831 829 823 823 823 822 824 829 829 829 829 829 834 839 846 829 827 809 815 814 806 796 792 816 810 793 779 759 748 781 769 757 743 730 728 729 730
840 839 838 840 839 838 833 839 837 820 825 828 823 822 815 820 828 827 826 830 836 842 856 847 832 820 817 806 810 803 798 792 798 787 776 755 737 763 766 759 746 742 735 732 731
841 836 839 839 840 838 842 840 827 825 829 830 829 830 830 825 832 829 826 832 834 838 840 843 840 826 818 815 805 802 801 812 801 812 791 754 758 790 773 763 763 752 744 742 735
840 832 841 840 840 843 847 832 829 831 833 833 832 834 831 833 831 830 827 826 836 837 837 837 847 837 827 823 818 808 808 821 821 806 808 797 769 759 767 760 758 758 756 754 748
834 840 843 842 844 848 842 831 842 831 836 837 838 837 836 836 835 833 831 829 836 836 839 842 857 848 835 821 811 805 838 840 836 828 825 806 775 755 756 754 757 758 762 757 757
829 831 842 842 850 841 833 835 836 835 833 836 837 838 837 840 842 833 832 831 832 838 839 842 847 853 837 821 827 838 834 837 838 832 826 817 783 764 762 757 758 763 769 765 761
837 850 847 845 835 832 830 831 836 840 838 838 839 840 840 839 834 834 832 829 830 834 837 842 845 852 853 847 840 840 832 826 828 830 821 808 793 771 761 765 761 764 761 761 759
841 848 837 845 853 834 829 833 832 837 842 841 841 839 839 842 841 839 835 832 832 831 832 834 847 845 840 834 826 818 816 808 812 809 815 794 786 770 765 772 767 769 770 762 760
852 847 840 834 833 834 835 835 833 829 836 837 842 837 838 843 842 844 839 838 839 835 834 833 844 836 832 825 817 813 804 797 791 783 778 773 768 762 767 767 770 774 770 767 767
841 841 838 839 834 836 834 833 832 831 834 838 840 842 844 842 839 839 840 840 840 840 839 836 836 838 832 817 812 813 788 782 777 773 767 773 774 781 767 769 772 778 776 770 766